Palm Springs, CA

12:45 AM PDT on August 31, 2016 (GMT -0700)
Palm Springs International

Weather History for KPSP - January, 2011

Change the Weather History Date:

Monday, January 10, 2011

  Actual Average Record
Temperature  
Mean Temperature 55 °F 57 °F  
Max Temperature 65 °F 68 °F 84 °F (1948)
Min Temperature 44 °F 46 °F 26 °F (1937)
Degree Days  
Heating Degree Days 10 8  
Month to date heating degree days 134 86  
Since 1 July heating degree days 459 472  
Cooling Degree Days 0 0  
Month to date cooling degree days 0 0  
Year to date cooling degree days 0 0  
Growing Degree Days 5 (Base 50)    
Moisture  
Dew Point 24 °F    
Average Humidity 49    
Maximum Humidity 83    
Minimum Humidity 14    
Precipitation  
Precipitation 0.00 in 0.04 in 1.99 in (1930)
Month to date precipitation 0.01 0.48  
Year to date precipitation 0.01 0.48  
Since 1 July precipitation 4.28  
Snow  
Snow 0.00 in - - ()
Month to date snowfall 0.0  
Year to date snowfall 0.0  
Snow Depth 0.00 in    
Sea Level Pressure  
Sea Level Pressure 30.13 in    
Wind  
Wind Speed 6 mph (WNW)    
Max Wind Speed 14 mph    
Max Gust Speed 18 mph    
Visibility 10 miles    
Events      
T = Trace of Precipitation, MM = Missing Value Source: NWS Daily Summary

Daily Weather History Graph

Daily Weather History Graph

Search for Another Location

Airport or City:

Trip Planner

Search our weather history database for the weather conditions in past years. The results will help you decide how hot, cold, wet, or windy it might be!

Date:

Astronomy

Jan. 10, 2011 Rise Set
Actual Time 6:51 AM PST 4:55 PM PST
Civil Twilight 6:24 AM PST 5:22 PM PST
Nautical Twilight 5:53 AM PST 5:53 PM PST
Astronomical Twilight 5:23 AM PST 6:23 PM PST
Moon 10:08 AM PST (1/10) 11:05 PM PST (1/10)
Length of Visible Light 10h 58m
Length of Day
10h 04m
Waxing Crescent, 35% of the Moon is Illuminated
Jan 10
Waxing Crescent
Jan 12
First Quarter
Jan 19
Full
Jan 26
Last Quarter
Feb 2
New

Hourly Weather History & Observations

Time (PST) Temp. Dew Point Humidity Pressure Visibility Wind Dir Wind Speed Gust Speed Precip Events Conditions
12:53 AM 48.0 °F 39.9 °F 74% 29.92 in 10.0 mi West 3.5 mph - N/A   Clear
1:53 AM 46.9 °F 39.9 °F 77% 29.95 in 10.0 mi WSW 3.5 mph - N/A   Clear
2:53 AM 50.0 °F 39.0 °F 66% 29.97 in 10.0 mi West 8.1 mph - N/A   Clear
3:53 AM 50.0 °F 37.9 °F 63% 29.98 in 10.0 mi Variable 3.5 mph - N/A   Clear
4:53 AM 52.0 °F 37.0 °F 57% 30.00 in 10.0 mi WSW 8.1 mph - N/A   Clear
5:53 AM 50.0 °F 37.0 °F 61% 30.04 in 10.0 mi WSW 8.1 mph - N/A   Clear
6:53 AM 50.0 °F 35.1 °F 57% 30.08 in 10.0 mi WNW 5.8 mph - N/A   Scattered Clouds
7:53 AM 54.0 °F 26.1 °F 34% 30.11 in 10.0 mi NW 11.5 mph - N/A   Clear
8:53 AM 57.0 °F 23.0 °F 27% 30.14 in 10.0 mi WNW 6.9 mph - N/A   Clear
9:53 AM 59.0 °F 21.0 °F 23% 30.16 in 10.0 mi West 4.6 mph - N/A   Scattered Clouds
10:53 AM 61.0 °F 18.0 °F 19% 30.15 in 10.0 mi NW 9.2 mph - N/A   Clear
11:53 AM 62.1 °F 19.0 °F 19% 30.13 in 10.0 mi Calm Calm - N/A   Clear
12:53 PM 63.0 °F 17.1 °F 17% 30.12 in 10.0 mi Variable 3.5 mph - N/A   Clear
1:53 PM 64.0 °F 16.0 °F 16% 30.12 in 10.0 mi North 8.1 mph - N/A   Clear
2:53 PM 64.0 °F 16.0 °F 16% 30.13 in 10.0 mi NNE 9.2 mph - N/A   Clear
3:53 PM 63.0 °F 14.0 °F 15% 30.14 in 10.0 mi NNE 9.2 mph - N/A   Clear
4:53 PM 57.9 °F 14.0 °F 18% 30.17 in 10.0 mi WNW 4.6 mph - N/A   Scattered Clouds
5:53 PM 57.0 °F 14.0 °F 18% 30.19 in 10.0 mi NW 6.9 mph - N/A   Clear
6:53 PM 54.0 °F 14.0 °F 21% 30.22 in 10.0 mi NW 6.9 mph - N/A   Clear
7:53 PM 54.0 °F 14.0 °F 21% 30.24 in 10.0 mi WNW 5.8 mph - N/A   Clear
8:53 PM 50.0 °F 19.9 °F 31% 30.25 in 10.0 mi West 5.8 mph - N/A   Clear
9:53 PM 50.0 °F 21.0 °F 32% 30.28 in 10.0 mi West 4.6 mph - N/A   Clear
10:53 PM 48.0 °F 21.9 °F 36% 30.27 in 10.0 mi West 5.8 mph - N/A   Clear
11:53 PM 48.9 °F 23.0 °F 36% 30.25 in 10.0 mi West 5.8 mph - N/A   Clear